Presure
210 207 200 185 208 205 174 188 189 199 198 174 194 204 182 189 177 182 180 194 215 222 238 275 321 367 360
200 201 166 151 230 179 210 211 202 200 174 189 181 186 194 198 140 160 200 182 243 222 205 357 358 371 371
185 200 197 185 213 173 210 203 205 195 200 196 200 202 188 192 194 195 204 227 203 222 231 321 380 375 368
196 207 190 150 171 180 213 199 192 174 198 146 197 186 197 191 195 195 217 218 232 230 332 358 390 356 357
149 164 201 185 203 151 158 143 191 203 189 188 193 197 192 191 194 215 208 213 222 268 248 345 344 349 347
209 202 204 164 205 185 205 200 201 207 202 217 181 204 199 208 204 218 217 207 255 317 338 333 326 334 348
192 202 207 179 196 192 187 183 198 194 205 211 187 205 188 216 202 217 209 245 264 285 334 316 311 314 322
203 175 183 191 193 197 203 196 196 203 200 202 201 214 202 194 219 214 254 304 221 311 320 322 302 309 317
200 195 184 182 192 199 188 192 194 187 199 202 207 199 211 223 235 256 274 287 301 303 310 313 302 298 300
192 188 197 203 208 204 210 203 196 202 201 208 203 211 221 273 252 281 271 288 283 298 308 304 296 291 291
189 200 202 202 198 186 187 185 205 207 205 198 201 214 265 274 296 266 282 292 290 288 283 309 281 283 279
200 194 195 198 191 200 202 198 198 217 202 191 205 259 298 295 268 286 280 279 278 289 275 272 279 286 281
202 205 200 202 202 203 203 199 194 250 242 200 289 315 293 284 285 275 280 274 270 271 280 273 267 293 277
204 213 189 204 205 211 231 284 304 276 243 293 304 286 281 285 275 270 272 273 270 271 274 270 274 267 273
274 291 233 223 248 275 261 255 267 284 282 277 281 277 286 272 266 285 276 270 268 284 273 262 268 264 263
261 259 271 265 234 254 252 262 282 269 273 280 274 274 268 264 291 275 273 264 266 264 258 256 261 255 252
256 227 238 226 290 244 281 277 265 264 272 267 261 267 260 259 277 269 259 262 261 259 257 256 252 254 249
Wind_Speed
112 112 106 84 111 92 71 78 79 85 86 54 90 97 71 87 78 81 87 116 127 122 101 109 64 38 33
117 110 73 71 109 83 107 106 104 99 57 82 65 82 94 103 84 86 118 87 125 98 85 55 48 37 31
90 107 100 84 96 75 111 106 108 83 98 97 93 105 101 110 110 107 110 128 89 99 82 68 44 34 29
103 109 90 59 76 79 116 94 90 69 98 80 96 104 110 93 107 104 126 111 110 100 52 39 23 26 28
69 78 107 91 112 80 87 83 106 100 86 90 101 108 103 99 100 126 105 97 110 123 93 32 25 23 24
118 121 119 76 113 89 112 118 109 119 121 126 74 125 118 127 121 135 117 87 133 53 34 25 23 20 22
106 110 123 84 112 107 99 93 112 115 123 129 98 125 89 131 110 125 95 142 106 66 28 28 27 25 21
129 90 101 117 116 120 128 123 119 132 124 120 124 136 113 90 138 117 122 51 80 39 29 21 27 21 21
130 123 103 101 116 125 109 113 114 99 127 130 141 114 130 151 152 118 90 52 41 39 28 20 22 18 19
114 106 124 131 131 136 139 141 129 133 129 134 120 136 148 115 102 77 70 47 44 31 26 23 24 23 22
111 133 132 140 126 101 108 102 139 139 136 115 121 135 117 95 58 71 48 40 36 31 27 22 29 29 25
128 124 123 131 118 135 137 134 132 149 130 110 112 107 72 60 65 45 43 42 36 28 29 27 27 31 31
139 144 136 136 138 140 143 127 114 101 139 104 69 56 61 56 47 44 40 38 35 33 27 26 27 23 29
128 149 97 134 135 144 142 92 60 98 102 63 57 56 54 45 44 42 39 34 33 33 29 27 25 27 25
113 82 148 140 126 111 96 84 84 62 59 59 55 50 43 43 43 38 35 32 32 30 29 29 26 27 27
117 115 100 106 99 97 91 76 54 57 54 51 47 43 41 41 38 36 33 33 32 32 33 32 29 29 29
111 100 105 94 56 94 51 49 52 50 48 46 43 39 40 39 34 35 35 34 33 33 34 32 31 30 31
Wind_Direction
288 289 295 293 296 300 291 296 305 302 311 295 317 318 316 323 302 318 311 318 316 315 323 322 307 290 269
289 287 284 278 294 294 303 302 307 311 292 314 312 316 321 321 292 284 318 300 320 318 308 305 301 291 260
284 287 293 292 294 291 303 306 306 300 308 313 309 318 314 315 316 318 316 319 307 315 317 312 291 281 254
290 291 290 281 289 295 303 299 301 285 308 276 313 304 311 305 314 315 317 320 320 319 304 306 275 269 250
278 285 296 295 299 277 290 283 302 307 308 311 312 311 312 311 315 315 317 312 316 321 320 309 295 274 250
288 293 296 289 299 294 301 305 302 305 307 305 302 308 310 314 312 312 316 309 316 306 301 299 294 286 263
293 292 293 291 297 300 300 300 300 305 306 301 305 308 304 309 306 312 308 316 314 308 294 291 286 281 257
289 291 294 296 297 298 296 301 301 302 303 305 308 306 305 304 310 310 310 298 312 297 287 273 276 277 268
286 287 289 290 295 296 296 298 299 299 301 306 304 305 307 309 307 307 306 298 296 292 285 275 268 260 252
283 285 290 292 290 293 293 295 300 296 301 302 301 305 306 310 306 301 300 293 294 288 280 263 260 257 248
281 286 287 290 291 290 293 292 297 295 296 299 302 304 303 301 290 296 290 287 288 284 282 254 269 263 259
281 283 286 288 289 289 290 293 294 292 294 291 295 299 293 288 289 285 284 282 287 284 273 272 266 258 258
280 283 283 283 285 285 288 288 290 286 292 291 289 286 284 283 279 279 277 279 282 280 270 265 264 254 257
276 276 273 281 284 286 285 285 273 288 290 283 285 283 281 276 275 275 273 273 274 274 269 264 262 255 254
270 268 275 276 282 281 283 281 285 274 276 281 280 279 275 272 273 264 266 265 268 256 257 263 259 257 254
271 274 274 276 280 283 284 284 264 271 275 277 276 276 271 272 259 262 262 265 263 257 260 262 262 258 258
271 276 278 279 266 285 261 258 266 270 271 272 273 270 270 269 262 263 264 261 261 261 261 261 263 261 259